Regional Weather Roundup
Issued by NWS Green Bay, WI

Home | Current Version | Previous Version | Graphics & Text | Print | Product List | Glossary Off
Versions: 1 2 3 4 5 6 7 8 9 10 11 12 13 14 15 16 17 18 19 20 21 22 23 24 25 26 27 28 29 30 31 32 33 34 35 36 37 38 39 40 41 42 43 44 45 46 47 48 49 50

000
ASUS43 KGRB 230611
RWRGRB

NORTH-CENTRAL AND NORTHEAST WISCONSIN REGIONAL WEATHER ROUNDUP
NATIONAL WEATHER SERVICE GREEN BAY WI
100 AM CDT MON OCT 23 2017

WIZ005-009-010>012-018-019-230700-
NORTH CENTRAL WISCONSIN

CITY           SKY/WX    TMP DP  RH WIND       PRES   REMARKS
IRONWOOD       MOCLDY    45  38  76 S10G16    29.89F
MANITOWISH WTR PTCLDY    39  39 100 S7        29.92F
ARBOR VITAE    CLEAR     42  40  95 S6        29.93F
EAGLE RIVER    NOT AVBL
LAND O LAKES   CLEAR     38  38 100 CALM      29.96S
RHINELANDER    CLEAR     42  41  96 SW7       29.96F
PHILLIPS       PTCLDY    42  40  94 S7        29.92F
ANTIGO         FOG       35  35 100 CALM      29.98S VSB 1/4
TOMAHAWK       FOG       36  35  96 CALM      29.96F VSB 1
MERRILL        CLEAR     30  30 100 NE3       29.97F FOG
$$

WIZ013-073-230700-
NORTHEAST WISCONSIN

CITY           SKY/WX    TMP DP  RH WIND       PRES   REMARKS
IRON MOUNTAIN  MOCLDY    40  38  93 CALM      29.95F FOG
MARINETTE      CLOUDY    45  44  97 CALM      29.99F FOG
OCONTO         CLOUDY    40  40 100 CALM      29.98F VSB 1/4
$$

WIZ017-030-035>037-045-230700-
CENTRAL WISCONSIN

CITY           SKY/WX    TMP DP  RH WIND       PRES   REMARKS
MEDFORD        CLEAR     39  38  97 S6        29.94F
WAUSAU         CLEAR     43  42  97 SW5       29.97F
MOSINEE        SNOW      41  41 100 S5        29.99F VSB 1/4
MARSHFIELD     FOG       38  36  92 S5        29.96F VSB 3/4
WISC RAPIDS    FOG       39  39 100 CALM      29.99F VSB 1/4
STEVENS POINT  FOG       41  41 100 CALM      29.99F VSB 3/4
WAUPACA        FOG       45  44  97 CALM      29.99F VSB 1/4
SHAWANO        FOG       47  46  95 CALM      29.98F VSB 1/4
CLINTONVILLE   NOT AVBL
WAUTOMA        FOG      N/A N/A N/A CALM      30.00F VSB 1/4
$$

WIZ038-039-048-051-230700-
FOX VALLEY

CITY           SKY/WX    TMP DP  RH WIND       PRES   REMARKS
NWS GREEN BAY  CLOUDY    45  45 100 CALM      29.98F FOG
APPLETON       PTCLDY    45  45 100 SW5       29.97F FOG
OSHKOSH        CLOUDY    46  45  96 S3        29.99F
FOND DU LAC    CLOUDY    48  45  89 S3        29.99F
$$

WIZ022-050-052-230700-
EAST CENTRAL WISCONSIN

CITY           SKY/WX    TMP DP  RH WIND       PRES   REMARKS
EPHRAIM        FAIR      45  44  97 CALM      29.97F
WASHINGTON ISL MOCLDY    49  46  92 SW3       29.97F
STURGEON BAY   PTCLDY    47  46  97 S3        29.99F
MANITOWOC      CLOUDY    49  48  97 CALM      30.00F
SHEBOYGAN      CLOUDY    49  49 100 CALM      30.00F
$$

LMZ563-521-522-541>543-230700-
LAKESHORE

STATION/POSITION TIME  TEMP    WIND        PRES    VSBY  WAVE
                       AIR SEA DIR/SP/G                  HT/PER
                 (UTC) (F)     (DEG/KT/KT) (MB)    (MI)  (FT/S)
SHEBOYGAN LKSHOR 0600   51     280/  4/  5 1016.0F
KEWAUNEE LKSHORE 0548   49     220/  1/  2 1015.0F
NORTHPORT PIER   0540   47     240/  1/  2 1015.2F
N MID LAKE BUOY  0550   53 57  260/ 10/ 12 1015.9F         2/ 6
S GREEN BAY BUOY 0600   53 58  250/  8/ 10 1015.0
SISTER BAY LKSHO 0604   51     220/  6/  7   N/A
MENOMINEE LKSHOR 0548   48     230/  5/  6 1014.9F
$$




USA.gov is the U.S. government's official web portal to all federal, state and local government web resources and services.